Stephenville, TX

3:14 AM CDT on June 25, 2017 (GMT -0500)
Clark Municipal

Weather History for KSEP - March, 2014

Change the Weather History Date:

Sunday, March 30, 2014

  Actual Average Record
Temperature  
Mean Temperature 61 °F -  
Max Temperature 80 °F 69 °F 88 °F (1959)
Min Temperature 43 °F 44 °F 25 °F (1987)
Degree Days  
Heating Degree Days 4    
Growing Degree Days 11 (Base 50)    
Moisture  
Dew Point 36 °F    
Average Humidity 42    
Maximum Humidity 72    
Minimum Humidity 18    
Precipitation  
Precipitation 0.00 in - - ()
Sea Level Pressure  
Sea Level Pressure 30.11 in    
Wind  
Wind Speed 8 mph (SSE)    
Max Wind Speed 23 mph    
Max Gust Speed 31 mph    
Visibility 10 miles    
Events      
Averages and records for this station are not official NWS values.
T = Trace of Precipitation, MM = Missing Value Source: NWS Daily Summary

Daily Weather History Graph

Daily Weather History Graph

Search for Another Location

Airport or City:

Trip Planner

Search our weather history database for the weather conditions in past years. The results will help you decide how hot, cold, wet, or windy it might be!

Date:

Astronomy

Mar. 30, 2014 Rise Set
Actual Time 7:23 AM CDT 7:51 PM CDT
Civil Twilight 6:58 AM CDT 8:15 PM CDT
Nautical Twilight 6:30 AM CDT 8:44 PM CDT
Astronomical Twilight 6:00 AM CDT 9:14 PM CDT
Moon 7:10 AM CDT (3/30) 8:03 PM CDT (3/30)
Length of Visible Light 13h 16m
Length of Day
12h 27m
Waning Crescent, 0% of the Moon is Illuminated
Mar 30
Waning Crescent
Mar 30
New
Apr 7
First Quarter
Apr 15
Full
Apr 22
Last Quarter

Hourly Weather History & Observations

Time (CDT) Temp. Windchill Dew Point Humidity Pressure Visibility Wind Dir Wind Speed Gust Speed Precip Events Conditions
12:15 AM 53.2 °F - 33.8 °F 48% 30.25 in 10.0 mi Calm Calm - N/A   Clear
12:35 AM 53.6 °F - 33.8 °F 47% 30.24 in 10.0 mi Calm Calm - N/A   Clear
1:15 AM 53.6 °F - 33.1 °F 46% 30.23 in 10.0 mi SE 4.6 mph - N/A   Clear
1:35 AM 52.9 °F - 34.2 °F 49% 30.23 in 10.0 mi SE 4.6 mph - N/A   Clear
1:55 AM 52.7 °F - 34.0 °F 49% 30.22 in 10.0 mi SSE 3.5 mph - N/A   Clear
2:15 AM 51.8 °F - 33.8 °F 50% 30.22 in 10.0 mi South 3.5 mph - N/A   Clear
2:35 AM 50.4 °F - 34.0 °F 53% 30.22 in 10.0 mi Calm Calm - N/A   Clear
2:55 AM 49.8 °F - 34.0 °F 55% 30.23 in 10.0 mi SSW 3.5 mph - N/A   Clear
3:15 AM 49.6 °F - 34.2 °F 55% 30.23 in 10.0 mi Calm Calm - N/A   Clear
3:35 AM 47.5 °F - 34.3 °F 60% 30.22 in 10.0 mi South 3.5 mph - N/A   Clear
3:55 AM 47.5 °F - 34.7 °F 61% 30.21 in 10.0 mi Calm Calm - N/A   Clear
4:15 AM 46.9 °F - 34.7 °F 62% 30.21 in 10.0 mi SSE 3.5 mph - N/A   Clear
4:35 AM 46.4 °F - 34.7 °F 64% 30.21 in 10.0 mi Calm Calm - N/A   Clear
4:55 AM 47.5 °F - 35.2 °F 63% 30.20 in 10.0 mi Calm Calm - N/A   Clear
5:15 AM 47.3 °F - 35.1 °F 62% 30.19 in 10.0 mi Calm Calm - N/A   Clear
5:35 AM 45.5 °F 43.2 °F 35.4 °F 68% 30.19 in 10.0 mi SSE 4.6 mph - N/A   Clear
5:55 AM 44.4 °F 42.0 °F 35.2 °F 70% 30.19 in 10.0 mi South 4.6 mph - N/A   Clear
6:15 AM 43.7 °F 42.1 °F 35.1 °F 72% 30.19 in 10.0 mi South 3.5 mph - N/A   Clear
6:35 AM 44.1 °F 42.5 °F 35.6 °F 72% 30.19 in 10.0 mi South 3.5 mph - N/A   Clear
6:55 AM 44.4 °F - 35.6 °F 71% 30.20 in 10.0 mi Calm Calm - N/A   Clear
7:15 AM 44.6 °F 43.1 °F 35.6 °F 71% 30.20 in 10.0 mi SSE 3.5 mph - N/A   Clear
7:35 AM 44.6 °F 42.2 °F 35.6 °F 71% 30.20 in 10.0 mi SSE 4.6 mph - N/A   Clear
7:55 AM 45.3 °F 44.0 °F 36.0 °F 70% 30.20 in 10.0 mi SSE 3.5 mph - N/A   Clear
8:15 AM 46.2 °F - 36.7 °F 69% 30.21 in 10.0 mi Calm Calm - N/A   Clear
8:35 AM 47.7 °F - 38.1 °F 70% 30.21 in 10.0 mi South 3.5 mph - N/A   Clear
8:55 AM 50.0 °F - 38.5 °F 65% 30.21 in 10.0 mi South 5.8 mph - N/A   Clear
9:15 AM 52.9 °F - 38.3 °F 58% 30.21 in 10.0 mi South 5.8 mph - N/A   Clear
9:35 AM 57.2 °F - 36.3 °F 46% 30.21 in 10.0 mi South 10.4 mph - N/A   Clear
9:55 AM 60.3 °F - 35.8 °F 40% 30.21 in 10.0 mi South 11.5 mph - N/A   Clear
10:15 AM 62.6 °F - 34.2 °F 35% 30.21 in 10.0 mi South 15.0 mph 20.7 mph N/A   Clear
10:35 AM 64.6 °F - 32.7 °F 30% 30.21 in 10.0 mi South 17.3 mph 26.5 mph N/A   Clear
10:55 AM 67.1 °F - 32.2 °F 27% 30.20 in 10.0 mi SSE 19.6 mph 26.5 mph N/A   Clear
11:15 AM 66.7 °F - 32.9 °F 28% 30.20 in 10.0 mi South 19.6 mph 24.2 mph N/A   Clear
11:35 AM 67.8 °F - 34.0 °F 29% 30.19 in 10.0 mi SSE 17.3 mph 24.2 mph N/A   Clear
11:55 AM 69.6 °F - 33.1 °F 26% 30.19 in 10.0 mi SSE 17.3 mph 28.8 mph N/A   Clear
12:15 PM 71.6 °F - 32.9 °F 24% 30.17 in 10.0 mi South 19.6 mph 26.5 mph N/A   Clear
12:35 PM 72.7 °F - 34.3 °F 25% 30.16 in 10.0 mi South 15.0 mph 23.0 mph N/A   Clear
12:55 PM 73.8 °F - 33.3 °F 23% 30.15 in 10.0 mi South 20.7 mph - N/A   Clear
1:15 PM 73.4 °F - 32.0 °F 22% 30.14 in 10.0 mi South 17.3 mph 25.3 mph N/A   Clear
1:35 PM 75.2 °F - 32.5 °F 21% 30.12 in 10.0 mi SSE 16.1 mph 27.6 mph N/A   Clear
1:55 PM 76.6 °F - 32.9 °F 20% 30.11 in 10.0 mi South 16.1 mph 23.0 mph N/A   Clear
2:15 PM 76.6 °F - 31.8 °F 19% 30.09 in 10.0 mi SSE 17.3 mph 26.5 mph N/A   Clear
2:35 PM 77.5 °F - 32.0 °F 19% 30.08 in 10.0 mi South 16.1 mph 23.0 mph N/A   Clear
2:55 PM 78.1 °F - 32.2 °F 19% 30.06 in 10.0 mi SSE 16.1 mph 24.2 mph N/A   Clear
3:15 PM 78.8 °F - 31.8 °F 18% 30.06 in 10.0 mi SSE 18.4 mph 25.3 mph N/A   Clear
3:35 PM 79.0 °F - 31.8 °F 18% 30.04 in 10.0 mi SSE 18.4 mph 26.5 mph N/A   Clear
3:55 PM 79.2 °F - 32.2 °F 18% 30.02 in 10.0 mi South 15.0 mph 26.5 mph N/A   Clear
4:15 PM 79.5 °F - 31.8 °F 18% 30.02 in 10.0 mi SSE 19.6 mph 26.5 mph N/A   Clear
4:35 PM 79.5 °F - 32.4 °F 18% 30.00 in 10.0 mi SSE 16.1 mph 26.5 mph N/A   Clear
4:55 PM 79.5 °F - 32.5 °F 18% 29.99 in 10.0 mi SSE 19.6 mph 27.6 mph N/A   Clear
5:15 PM 79.5 °F - 33.6 °F 19% 29.98 in 10.0 mi SSE 15.0 mph 27.6 mph N/A   Clear
5:35 PM 79.0 °F - 33.1 °F 19% 29.97 in 10.0 mi South 15.0 mph 27.6 mph N/A   Clear
5:55 PM 78.8 °F - 34.2 °F 20% 29.97 in 10.0 mi SSE 13.8 mph 26.5 mph N/A   Clear
6:15 PM 77.9 °F - 34.7 °F 21% 29.97 in 10.0 mi SSE 13.8 mph 24.2 mph N/A   Clear
6:35 PM 76.6 °F - 35.4 °F 22% 29.97 in 10.0 mi SSE 16.1 mph 25.3 mph N/A   Clear
6:55 PM 75.4 °F - 35.8 °F 24% 29.97 in 10.0 mi SSE 18.4 mph 25.3 mph N/A   Clear
7:15 PM 74.7 °F - 36.5 °F 25% 29.97 in 10.0 mi SSE 16.1 mph 23.0 mph N/A   Clear
7:35 PM 73.4 °F - 37.8 °F 27% 29.96 in 10.0 mi SSE 17.3 mph 21.9 mph N/A   Clear
7:55 PM 71.8 °F - 38.5 °F 30% 29.96 in 10.0 mi SSE 13.8 mph 23.0 mph N/A   Clear
8:15 PM 70.7 °F - 39.2 °F 32% 29.96 in 10.0 mi SSE 13.8 mph 20.7 mph N/A   Clear
8:35 PM 69.8 °F - 39.9 °F 34% 29.96 in 10.0 mi SSE 16.1 mph 21.9 mph N/A   Clear
8:55 PM 68.9 °F - 41.4 °F 37% 29.96 in 10.0 mi SSE 16.1 mph 21.9 mph N/A   Clear
9:15 PM 68.2 °F - 42.8 °F 40% 29.97 in 10.0 mi SSE 12.7 mph 20.7 mph N/A   Clear
9:35 PM 67.8 °F - 44.1 °F 42% 29.98 in 10.0 mi SSE 11.5 mph 17.3 mph N/A   Scattered Clouds
9:55 PM 67.5 °F - 45.1 °F 45% 29.97 in 10.0 mi SSE 16.1 mph 24.2 mph N/A   Clear
10:15 PM 67.1 °F - 45.7 °F 46% 29.97 in 10.0 mi SSE 16.1 mph 27.6 mph N/A   Clear
10:35 PM 66.4 °F - 46.4 °F 49% 29.97 in 10.0 mi SSE 13.8 mph 27.6 mph N/A   Clear
10:55 PM 65.8 °F - 46.4 °F 49% 29.97 in 10.0 mi South 17.3 mph 26.5 mph N/A   Clear
11:15 PM 65.3 °F - 46.8 °F 51% 29.97 in 10.0 mi South 23.0 mph 31.1 mph N/A   Clear
11:35 PM 64.4 °F - 46.8 °F 53% 29.97 in 7.0 mi South 20.7 mph 28.8 mph N/A   Clear
11:55 PM 63.5 °F - 46.9 °F 55% 29.97 in 10.0 mi South 17.3 mph 26.5 mph N/A   Clear